,,PA_Meas_PMT16A,,PR_Meas_QMR101_102,,RH_Meas_QMH101,,SR_Meas_QMS101,,TA_Meas_QMH101,,GenWind,,GenWind,
time,status,PA,status,PR,status,RH,status,SR,status,TA,status,DirAvg,status,SpdAvg,
2017-01-17, 14:34:04,VALID,917.661,VALID,0,VALID,58.7994,VALID,156.757,VALID,21.8892,VALID,275,VALID,0,
2017-01-17, 14:35:04,VALID,917.675,VALID,0,VALID,62.8169,VALID,159.765,VALID,22.2015,VALID,275,VALID,0,
2017-01-17, 14:36:04,VALID,917.684,VALID,0,VALID,68.5116,VALID,163.311,VALID,22.2405,VALID,275,VALID,0,
2017-01-17, 14:37:04,VALID,917.653,VALID,0,VALID,71.4009,VALID,166.964,VALID,22.221,VALID,275,VALID,0,
2017-01-17, 14:38:04,VALID,917.688,VALID,0,VALID,68.8318,VALID,170.939,VALID,22.1234,VALID,275,VALID,0,
2017-01-17, 14:39:04,VALID,917.731,VALID,0,VALID,71.2789,VALID,174.162,VALID,22.0242,VALID,275,VALID,0,
2017-01-17, 14:40:04,VALID,917.768,VALID,0,VALID,68.1,VALID,176.096,VALID,22.0047,VALID,275,VALID,0,
2017-01-17, 14:41:04,VALID,917.774,VALID,0,VALID,68.3897,VALID,179.642,VALID,22.0454,VALID,275,VALID,0,
2017-01-17, 14:42:04,VALID,917.819,VALID,0,VALID,67.0403,VALID,182.972,VALID,21.9266,VALID,275,VALID,0,
2017-01-17, 14:43:04,VALID,917.844,VALID,0,VALID,65.4699,VALID,186.41,VALID,21.9071,VALID,275,VALID,0,
2017-01-17, 14:44:04,VALID,917.869,VALID,0,VALID,61.8183,VALID,189.741,VALID,21.9656,VALID,275,VALID,0,
2017-01-17, 14:45:04,VALID,917.851,VALID,0,VALID,60.103,VALID,191.782,VALID,22.0242,VALID,275,VALID,0,
2017-01-17, 14:46:04,VALID,917.897,VALID,0,VALID,63.0609,VALID,194.361,VALID,22.0242,VALID,302,VALID,0,
2017-01-17, 14:47:04,VALID,917.885,VALID,0,VALID,64.212,VALID,198.981,VALID,21.964,VALID,343,VALID,0,
2017-01-17, 14:48:04,VALID,917.894,VALID,0,VALID,62.4129,VALID,204.246,VALID,21.9249,VALID,343,VALID,0,
2017-01-17, 14:49:04,VALID,917.928,VALID,0,VALID,65.8587,VALID,207.147,VALID,21.9851,VALID,343,VALID,0,
2017-01-17, 14:50:04,VALID,917.897,VALID,0,VALID,63.4421,VALID,210.692,VALID,22.0047,VALID,343,VALID,0,
2017-01-17, 14:51:04,VALID,917.922,VALID,0,VALID,66.4305,VALID,217.783,VALID,21.9444,VALID,355,VALID,0,
2017-01-17, 14:52:04,VALID,917.926,VALID,0,VALID,65.9273,VALID,220.362,VALID,21.8469,VALID,355,VALID,0,
2017-01-17, 14:53:04,VALID,917.973,VALID,0,VALID,67.5511,VALID,221.114,VALID,21.8079,VALID,355,VALID,0,
2017-01-17, 14:54:04,VALID,918.009,VALID,0,VALID,65.5156,VALID,224.767,VALID,21.9444,VALID,355,VALID,0,
2017-01-17, 14:55:04,VALID,917.994,VALID,0,VALID,65.7672,VALID,230.891,VALID,22.1591,VALID,355,VALID,0,
2017-01-17, 14:56:04,VALID,918.027,VALID,0,VALID,63.8461,VALID,230.246,VALID,22.2762,VALID,355,VALID,0,
2017-01-17, 14:57:04,VALID,918.009,VALID,0,VALID,65.3937,VALID,231.213,VALID,22.372,VALID,355,VALID,0,
2017-01-17, 14:58:04,VALID,918.057,VALID,0,VALID,64.5398,VALID,239.916,VALID,22.4908,VALID,355,VALID,0,
2017-01-17, 14:59:04,VALID,918.064,VALID,0,VALID,63.9833,VALID,246.577,VALID,22.6096,VALID,355,VALID,0,
2017-01-17, 15:00:04,VALID,918.074,VALID,0,VALID,62.8474,VALID,238.197,VALID,22.647,VALID,304,VALID,0,
2017-01-17, 15:01:04,VALID,918.103,VALID,0,VALID,64.1053,VALID,235.511,VALID,22.4323,VALID,343,VALID,0,
2017-01-17, 15:02:04,VALID,918.101,VALID,0,VALID,61.5896,VALID,244.106,VALID,22.3169,VALID,357,VALID,0,
2017-01-17, 15:03:04,VALID,918.101,VALID,0,VALID,58.5173,VALID,254.421,VALID,22.1591,VALID,352,VALID,0,
2017-01-17, 15:04:04,VALID,918.13,VALID,0,VALID,60.568,VALID,261.082,VALID,22.1591,VALID,15,VALID,0,
2017-01-17, 15:05:04,VALID,918.128,VALID,0,VALID,62.4968,VALID,261.404,VALID,22.1591,VALID,15,VALID,0,
2017-01-17, 15:06:04,VALID,918.111,VALID,0,VALID,60.6138,VALID,266.669,VALID,22.1786,VALID,20,VALID,0,
2017-01-17, 15:07:04,VALID,918.152,VALID,0,VALID,57.5187,VALID,274.62,VALID,22.1981,VALID,13,VALID,0.0121094,
2017-01-17, 15:08:04,VALID,918.21,VALID,0,VALID,58.2581,VALID,274.727,VALID,22.2567,VALID,6,VALID,0.00429688,
2017-01-17, 15:09:04,VALID,918.228,VALID,0,VALID,59.3407,VALID,279.025,VALID,22.3347,VALID,298,VALID,0,
2017-01-17, 15:10:04,VALID,918.239,VALID,0,VALID,61.2313,VALID,267.528,VALID,22.3525,VALID,294,VALID,0,
2017-01-17, 15:11:04,VALID,918.239,VALID,0,VALID,62.2071,VALID,241.098,VALID,22.1184,VALID,267,VALID,0,
2017-01-17, 15:12:04,VALID,918.299,VALID,0,VALID,60.5375,VALID,247.652,VALID,21.9444,VALID,333,VALID,0,
2017-01-17, 15:13:04,VALID,918.23,VALID,0,VALID,61.8564,VALID,294.389,VALID,22.0208,VALID,333,VALID,0,
2017-01-17, 15:14:04,VALID,918.291,VALID,0,VALID,63.2591,VALID,305.67,VALID,22.1769,VALID,333,VALID,0,
2017-01-17, 15:15:04,VALID,918.268,VALID,0,VALID,60.7662,VALID,305.778,VALID,22.4306,VALID,333,VALID,0,
2017-01-17, 15:16:04,VALID,918.301,VALID,0,VALID,54.9343,VALID,310.183,VALID,22.5689,VALID,317,VALID,0,
2017-01-17, 15:17:04,VALID,918.339,VALID,0,VALID,55.3079,VALID,311.579,VALID,22.686,VALID,305,VALID,0,
2017-01-17, 15:18:04,VALID,918.319,VALID,0,VALID,51.1379,VALID,309.645,VALID,22.8812,VALID,305,VALID,0,
2017-01-17, 15:19:04,VALID,918.366,VALID,0,VALID,52.0069,VALID,320.067,VALID,22.9397,VALID,294,VALID,0,
2017-01-17, 15:20:04,VALID,918.371,VALID,0,VALID,52.5177,VALID,322.968,VALID,22.9397,VALID,291,VALID,0,
2017-01-17, 15:21:04,VALID,918.381,VALID,0,VALID,55.8949,VALID,323.398,VALID,22.8599,VALID,303,VALID,0,
2017-01-17, 15:22:04,VALID,918.391,VALID,0,VALID,54.5379,VALID,327.696,VALID,22.8794,VALID,20,VALID,0,
2017-01-17, 15:23:04,VALID,918.412,VALID,0,VALID,56.642,VALID,331.026,VALID,22.9397,VALID,12,VALID,0,
2017-01-17, 15:24:04,VALID,918.415,VALID,0,VALID,57.3891,VALID,324.795,VALID,23.0959,VALID,5,VALID,0,
2017-01-17, 15:25:04,VALID,918.445,VALID,0,VALID,57.0536,VALID,328.448,VALID,23.2502,VALID,5,VALID,0,
2017-01-17, 15:26:04,VALID,918.447,VALID,0,VALID,55.2316,VALID,333.175,VALID,23.4454,VALID,20,VALID,0,
2017-01-17, 15:27:04,VALID,918.433,VALID,0,VALID,56.7944,VALID,339.729,VALID,23.6034,VALID,31,VALID,0,
2017-01-17, 15:28:04,VALID,918.481,VALID,0,VALID,52.3957,VALID,338.869,VALID,23.8572,VALID,223,VALID,0,
2017-01-17, 15:29:04,VALID,918.483,VALID,0,VALID,54.0805,VALID,343.704,VALID,23.7791,VALID,250,VALID,0,
2017-01-17, 15:30:04,VALID,918.466,VALID,0,VALID,56.2074,VALID,333.605,VALID,23.543,VALID,271,VALID,0,
2017-01-17, 15:31:04,VALID,918.461,VALID,0,VALID,50.1163,VALID,347.465,VALID,23.5821,VALID,26,VALID,0,
2017-01-17, 15:32:04,VALID,918.47,VALID,0,VALID,53.8594,VALID,349.291,VALID,23.7382,VALID,359,VALID,0,
2017-01-17, 15:33:04,VALID,918.492,VALID,0,VALID,51.4352,VALID,355.953,VALID,23.6797,VALID,359,VALID,0,
2017-01-17, 15:34:04,VALID,918.483,VALID,0,VALID,51.4809,VALID,351.87,VALID,23.5821,VALID,359,VALID,0,
2017-01-17, 15:35:04,VALID,918.481,VALID,0,VALID,54.3321,VALID,363.796,VALID,23.543,VALID,359,VALID,0,
2017-01-17, 15:36:04,VALID,918.471,VALID,0,VALID,55.5442,VALID,360.895,VALID,23.6016,VALID,4,VALID,0,
2017-01-17, 15:37:04,VALID,918.436,VALID,0,VALID,51.8316,VALID,361.002,VALID,23.6797,VALID,294,VALID,0,
2017-01-17, 15:38:04,VALID,918.452,VALID,0,VALID,50.2231,VALID,355.953,VALID,23.6406,VALID,294,VALID,0.04375,
2017-01-17, 15:39:04,VALID,918.434,VALID,0,VALID,51.0845,VALID,357.457,VALID,23.5608,VALID,297,VALID,0,
2017-01-17, 15:40:04,VALID,918.429,VALID,0,VALID,51.7554,VALID,364.225,VALID,23.5022,VALID,294,VALID,0,
2017-01-17, 15:41:04,VALID,918.414,VALID,0,VALID,50.9778,VALID,361.754,VALID,23.5626,VALID,307,VALID,0,
2017-01-17, 15:42:04,VALID,918.424,VALID,0,VALID,51.9383,VALID,366.589,VALID,23.4632,VALID,294,VALID,0,
2017-01-17, 15:43:04,VALID,918.448,VALID,0,VALID,51.9841,VALID,367.234,VALID,23.4845,VALID,304,VALID,0,
2017-01-17, 15:44:04,VALID,918.465,VALID,0,VALID,50.1163,VALID,350.366,VALID,23.4632,VALID,298,VALID,0,
2017-01-17, 15:45:04,VALID,918.44,VALID,0,VALID,55.4222,VALID,363.903,VALID,23.3869,VALID,340,VALID,0,
2017-01-17, 15:46:04,VALID,918.45,VALID,0,VALID,56.3523,VALID,375.077,VALID,23.4437,VALID,20,VALID,0,
2017-01-17, 15:47:04,VALID,918.476,VALID,0,VALID,52.2433,VALID,375.614,VALID,23.543,VALID,219,VALID,0,
2017-01-17, 15:48:04,VALID,918.458,VALID,0,VALID,52.7845,VALID,374.218,VALID,23.5803,VALID,177,VALID,0,
2017-01-17, 15:49:04,VALID,918.431,VALID,0,VALID,54.1796,VALID,378.945,VALID,23.6779,VALID,280,VALID,0,
2017-01-17, 15:50:04,VALID,918.452,VALID,0,VALID,54.1415,VALID,380.449,VALID,23.6584,VALID,280,VALID,0,
2017-01-17, 15:51:04,VALID,918.466,VALID,0,VALID,54.3778,VALID,378.945,VALID,23.7542,VALID,280,VALID,0,
2017-01-17, 15:52:04,VALID,918.489,VALID,0,VALID,51.1455,VALID,378.408,VALID,23.8536,VALID,231,VALID,0,
2017-01-17, 15:53:04,VALID,918.499,VALID,0,VALID,50.1316,VALID,370.994,VALID,23.7755,VALID,242,VALID,0,
2017-01-17, 15:54:04,VALID,918.471,VALID,0,VALID,54.0043,VALID,367.986,VALID,23.6779,VALID,256,VALID,0,
2017-01-17, 15:55:04,VALID,918.468,VALID,0,VALID,53.8137,VALID,368.953,VALID,23.5803,VALID,242,VALID,0.382422,
2017-01-17, 15:56:04,VALID,918.462,VALID,0,VALID,52.6854,VALID,376.366,VALID,23.4064,VALID,249,VALID,0.239453,
2017-01-17, 15:57:04,VALID,918.433,VALID,0,VALID,51.5724,VALID,377.656,VALID,23.2893,VALID,247,VALID,0.00664063,
2017-01-17, 15:58:04,VALID,918.408,VALID,0,VALID,55.933,VALID,382.813,VALID,23.2893,VALID,289,VALID,0,
2017-01-17, 15:59:04,VALID,918.427,VALID,0,VALID,55.4832,VALID,390.656,VALID,23.3088,VALID,299,VALID,0,
2017-01-17, 16:00:04,VALID,918.419,VALID,0,VALID,58.1972,VALID,402.904,VALID,23.3674,VALID,308,VALID,0,
2017-01-17, 16:01:04,VALID,918.423,VALID,0,VALID,58.2276,VALID,407.095,VALID,23.3674,VALID,265,VALID,0,
2017-01-17, 16:02:04,VALID,918.429,VALID,0,VALID,53.2419,VALID,409.243,VALID,23.465,VALID,306,VALID,0,
2017-01-17, 16:03:04,VALID,918.397,VALID,0,VALID,55.4375,VALID,410.425,VALID,23.5412,VALID,294,VALID,0,
2017-01-17, 16:04:04,VALID,918.391,VALID,0,VALID,54.7971,VALID,412.467,VALID,23.5803,VALID,259,VALID,0,
2017-01-17, 16:05:04,VALID,918.458,VALID,0,VALID,53.3258,VALID,427.401,VALID,23.4437,VALID,263,VALID,0,
2017-01-17, 16:06:04,VALID,918.422,VALID,0,VALID,55.3994,VALID,437.5,VALID,23.4046,VALID,228,VALID,0,
2017-01-17, 16:07:04,VALID,918.456,VALID,0,VALID,55.4985,VALID,444.054,VALID,23.3656,VALID,300,VALID,0,
2017-01-17, 16:08:04,VALID,918.439,VALID,0,VALID,55.7272,VALID,444.162,VALID,23.4437,VALID,313,VALID,0,
2017-01-17, 16:09:04,VALID,918.484,VALID,0,VALID,54.1034,VALID,448.352,VALID,23.5412,VALID,293,VALID,0,
2017-01-17, 16:10:04,VALID,918.479,VALID,0,VALID,55.4299,VALID,455.336,VALID,23.6193,VALID,313,VALID,0.509375,
2017-01-17, 16:11:04,VALID,918.525,VALID,0,VALID,57.0918,VALID,462.104,VALID,23.6974,VALID,295,VALID,0,
2017-01-17, 16:12:04,VALID,918.517,VALID,0,VALID,57.0384,VALID,475.535,VALID,23.6974,VALID,243,VALID,0,
2017-01-17, 16:13:04,VALID,918.509,VALID,0,VALID,53.585,VALID,480.584,VALID,23.6193,VALID,246,VALID,0,
2017-01-17, 16:14:04,VALID,918.528,VALID,0,VALID,55.9711,VALID,483.807,VALID,23.6779,VALID,246,VALID,0,
2017-01-17, 16:15:04,VALID,918.532,VALID,0,VALID,54.355,VALID,480.799,VALID,23.6388,VALID,293,VALID,0,
2017-01-17, 16:16:04,VALID,918.535,VALID,0,VALID,54.698,VALID,476.931,VALID,23.6584,VALID,277,VALID,0,
2017-01-17, 16:17:04,VALID,918.523,VALID,0,VALID,57.5111,VALID,477.254,VALID,23.6211,VALID,285,VALID,0,
2017-01-17, 16:18:04,VALID,918.54,VALID,0,VALID,56.4285,VALID,475.212,VALID,23.598,VALID,223,VALID,0,
2017-01-17, 16:19:04,VALID,918.545,VALID,0,VALID,56.8402,VALID,479.51,VALID,23.7364,VALID,282,VALID,0,
2017-01-17, 16:20:04,VALID,918.525,VALID,0,VALID,55.7805,VALID,478.328,VALID,23.795,VALID,261,VALID,0,
2017-01-17, 16:21:04,VALID,918.526,VALID,0,VALID,54.0653,VALID,479.832,VALID,23.9902,VALID,335,VALID,0,
2017-01-17, 16:22:04,VALID,918.519,VALID,0,VALID,55.3765,VALID,480.047,VALID,24.0488,VALID,360,VALID,0,
2017-01-17, 16:23:04,VALID,918.526,VALID,0,VALID,50.0706,VALID,487.461,VALID,24.0097,VALID,297,VALID,0,
2017-01-17, 16:24:04,VALID,918.514,VALID,0,VALID,52.1518,VALID,485.849,VALID,23.9902,VALID,242,VALID,0,
2017-01-17, 16:25:04,VALID,918.536,VALID,0,VALID,52.1137,VALID,490.254,VALID,24.1659,VALID,254,VALID,0,
2017-01-17, 16:26:04,VALID,918.555,VALID,0,VALID,50.589,VALID,481.874,VALID,24.3026,VALID,296,VALID,0,
2017-01-17, 16:27:04,VALID,918.572,VALID,0,VALID,48.4239,VALID,470.162,VALID,24.2635,VALID,266,VALID,0,
2017-01-17, 16:28:04,VALID,918.534,VALID,0,VALID,50.7872,VALID,466.724,VALID,24.0097,VALID,308,VALID,0.059375,
2017-01-17, 16:29:04,VALID,918.552,VALID,0,VALID,53.5774,VALID,453.617,VALID,23.7932,VALID,358,VALID,0,
2017-01-17, 16:30:04,VALID,918.562,VALID,0,VALID,53.9052,VALID,490.899,VALID,23.9707,VALID,353,VALID,0,
2017-01-17, 16:31:04,VALID,918.534,VALID,0,VALID,50.7796,VALID,493.155,VALID,24.1464,VALID,289,VALID,0,
2017-01-17, 16:32:04,VALID,918.568,VALID,0,VALID,53.3487,VALID,493.047,VALID,24.3788,VALID,12,VALID,0,
2017-01-17, 16:33:04,VALID,918.592,VALID,0,VALID,48.8432,VALID,505.296,VALID,24.6149,VALID,347,VALID,0,
2017-01-17, 16:34:04,VALID,918.609,VALID,0,VALID,49.8648,VALID,494.337,VALID,24.7126,VALID,329,VALID,0,
2017-01-17, 16:35:04,VALID,918.635,VALID,0,VALID,50.002,VALID,491.328,VALID,24.7888,VALID,327,VALID,0,
2017-01-17, 16:36:04,VALID,918.665,VALID,0,VALID,48.7746,VALID,481.121,VALID,24.9059,VALID,320,VALID,0,
2017-01-17, 16:37:04,VALID,918.657,VALID,0,VALID,48.2791,VALID,494.767,VALID,24.9078,VALID,347,VALID,0,
2017-01-17, 16:38:04,VALID,918.657,VALID,0,VALID,47.1966,VALID,505.403,VALID,24.8474,VALID,250,VALID,0,
2017-01-17, 16:39:04,VALID,918.633,VALID,0,VALID,47.1432,VALID,498.419,VALID,24.574,VALID,278,VALID,0,
2017-01-17, 16:40:04,VALID,918.633,VALID,0,VALID,48.3477,VALID,491.543,VALID,24.4392,VALID,273,VALID,0,
2017-01-17, 16:41:04,VALID,918.599,VALID,0,VALID,48.2715,VALID,480.477,VALID,24.2812,VALID,317,VALID,0.276953,
2017-01-17, 16:42:04,VALID,918.596,VALID,0,VALID,50.2764,VALID,458.559,VALID,24.0683,VALID,309,VALID,0.0417969,
2017-01-17, 16:43:04,VALID,918.565,VALID,0,VALID,51.6029,VALID,420.202,VALID,24.0469,VALID,46,VALID,0.85,
2017-01-17, 16:44:04,VALID,918.586,VALID,0,VALID,52.2052,VALID,370.887,VALID,24.1055,VALID,291,VALID,0,
2017-01-17, 16:45:04,VALID,918.583,VALID,0,VALID,50.3908,VALID,325.869,VALID,24.1836,VALID,305,VALID,0,
2017-01-17, 16:46:04,VALID,918.566,VALID,0,VALID,54.3016,VALID,274.19,VALID,24.283,VALID,354,VALID,0,
2017-01-17, 16:47:04,VALID,918.573,VALID,0,VALID,50.8177,VALID,232.718,VALID,24.4197,VALID,23,VALID,0,
2017-01-17, 16:48:04,VALID,918.577,VALID,0,VALID,51.7477,VALID,201.882,VALID,24.6112,VALID,358,VALID,0,
2017-01-17, 16:49:04,VALID,918.607,VALID,0,VALID,50.5585,VALID,181.468,VALID,24.8083,INVALID,360,VALID,0,
2017-01-17, 16:50:04,VALID,918.563,VALID,0,VALID,50.3222,VALID,168.253,VALID,24.8278,VALID,352,VALID,0,
2017-01-17, 16:51:04,VALID,918.583,VALID,0,VALID,49.941,VALID,161.484,VALID,25.0426,VALID,316,VALID,0,
2017-01-17, 16:52:04,VALID,918.553,VALID,0,VALID,48.18,VALID,157.294,VALID,24.984,VALID,246,VALID,0,
2017-01-17, 16:53:04,VALID,918.572,VALID,0,VALID,47.5396,VALID,155.36,VALID,24.6912,VALID,195,VALID,0,
2017-01-17, 16:54:04,VALID,918.572,VALID,0,VALID,50.9015,VALID,153.963,VALID,24.6521,VALID,290,VALID,0,
2017-01-17, 16:55:04,VALID,918.591,VALID,0,VALID,50.4823,VALID,153.641,VALID,24.6326,VALID,273,VALID,0,
2017-01-17, 16:56:04,VALID,918.579,VALID,0,VALID,48.9347,VALID,152.889,VALID,24.5935,VALID,244,VALID,0,
2017-01-17, 16:57:04,VALID,918.617,VALID,0,VALID,50.8329,VALID,152.889,VALID,24.6912,VALID,254,VALID,0,
2017-01-17, 16:58:04,VALID,918.577,VALID,0,VALID,48.1647,VALID,153.104,VALID,24.8083,VALID,317,VALID,0,
2017-01-17, 16:59:04,VALID,918.604,VALID,0,VALID,50.1621,VALID,154.178,VALID,24.7693,VALID,336,VALID,0,
2017-01-17, 17:00:04,VALID,918.629,VALID,0,VALID,48.3096,VALID,156.112,VALID,24.7888,VALID,283,VALID,0,
2017-01-17, 17:01:04,VALID,918.62,VALID,0,VALID,49.8419,VALID,157.938,VALID,24.5155,VALID,274,VALID,0,
2017-01-17, 17:02:04,VALID,918.598,VALID,0,VALID,50.8101,VALID,161.591,VALID,24.3806,VALID,302,VALID,0,
2017-01-17, 17:03:04,VALID,918.615,VALID,0,VALID,50.1926,VALID,168.36,VALID,24.3026,VALID,275,VALID,0,
2017-01-17, 17:04:04,VALID,918.584,VALID,0,VALID,49.7047,VALID,179.964,VALID,24.1641,VALID,248,VALID,0,
2017-01-17, 17:05:04,VALID,918.611,VALID,0,VALID,52.9065,VALID,202.312,VALID,24.086,VALID,280,VALID,0,
2017-01-17, 17:06:04,VALID,918.574,VALID,0,VALID,49.6589,VALID,242.065,VALID,24.1641,VALID,296,VALID,0,
2017-01-17, 17:07:04,VALID,918.555,VALID,0,VALID,51.4504,VALID,302.447,VALID,24.2812,VALID,261,VALID,0,
2017-01-17, 17:08:04,VALID,918.574,VALID,0,VALID,52.8455,VALID,380.664,VALID,24.3983,VALID,252,VALID,0,
2017-01-17, 17:09:04,VALID,918.553,VALID,0,VALID,49.6513,VALID,466.832,VALID,24.5545,VALID,294,VALID,0,
2017-01-17, 17:10:04,VALID,918.53,VALID,0,VALID,52.5406,VALID,535.272,VALID,24.6912,VALID,277,VALID,0,
2017-01-17, 17:11:04,VALID,918.572,VALID,0,VALID,48.4621,VALID,582.224,VALID,25.0036,VALID,200,VALID,0,
2017-01-17, 17:12:04,VALID,918.556,VALID,0,VALID,49.6437,VALID,609.406,VALID,25.2183,VALID,269,VALID,0,
2017-01-17, 17:13:04,VALID,918.563,VALID,0,VALID,44.6122,VALID,636.266,VALID,25.1207,VALID,247,VALID,0,
2017-01-17, 17:14:04,VALID,918.554,VALID,0,VALID,46.175,VALID,648.192,VALID,24.8669,VALID,224,VALID,0,
2017-01-17, 17:15:04,VALID,918.588,VALID,0,VALID,48.4011,VALID,648.192,VALID,24.7302,VALID,317,VALID,1.45234,
2017-01-17, 17:16:04,VALID,918.61,VALID,0,VALID,46.4114,VALID,661.73,VALID,24.6521,VALID,256,VALID,0.0261719,
2017-01-17, 17:17:04,VALID,918.542,VALID,0,VALID,47.0517,VALID,665.383,VALID,24.6131,VALID,275,VALID,0,
2017-01-17, 17:18:04,VALID,918.577,VALID,0,VALID,48.889,VALID,674.086,VALID,24.6502,VALID,283,VALID,0,
2017-01-17, 17:19:04,VALID,918.55,VALID,0,VALID,46.8459,VALID,678.813,VALID,24.6716,VALID,267,VALID,0.0417969,
2017-01-17, 17:20:04,VALID,918.588,VALID,0,VALID,47.9742,VALID,673.119,VALID,24.8102,VALID,294,VALID,0.0488281,
2017-01-17, 17:21:04,VALID,918.552,VALID,0,VALID,48.706,VALID,680.962,VALID,24.9078,VALID,260,VALID,0.264453,
2017-01-17, 17:22:04,VALID,918.556,VALID,0,VALID,52.6549,VALID,676.449,VALID,24.8492,VALID,265,VALID,0.176172,
2017-01-17, 17:23:04,VALID,918.55,VALID,0,VALID,50.3603,VALID,672.367,VALID,24.9078,VALID,299,VALID,0,
2017-01-17, 17:24:04,VALID,918.555,VALID,0,VALID,49.9639,VALID,680.64,VALID,25.1422,VALID,33,VALID,0,
2017-01-17, 17:25:05,VALID,918.533,VALID,0,VALID,50.2154,VALID,664.523,VALID,25.3765,VALID,332,VALID,0,
2017-01-17, 17:26:05,VALID,918.542,VALID,0,VALID,48.4011,VALID,681.284,VALID,25.6304,VALID,274,VALID,0,
2017-01-17, 17:27:05,VALID,918.516,VALID,0,VALID,45.0239,VALID,685.26,VALID,25.2965,VALID,273,VALID,2.32344,
2017-01-17, 17:28:05,VALID,918.511,VALID,0,VALID,46.9755,VALID,696.648,VALID,24.8688,VALID,274,VALID,0.50625,
2017-01-17, 17:29:05,VALID,918.531,VALID,0,VALID,51.7554,VALID,703.31,VALID,24.7711,VALID,287,VALID,0,
2017-01-17, 17:30:05,VALID,918.529,VALID,0,VALID,49.8266,VALID,696.648,VALID,24.8688,VALID,277,VALID,0.279687,
2017-01-17, 17:31:05,VALID,918.518,VALID,0,VALID,47.9208,VALID,701.591,VALID,24.8669,VALID,262,VALID,0.436328,
2017-01-17, 17:32:05,VALID,918.51,VALID,0,VALID,48.2867,VALID,703.632,VALID,24.8278,VALID,253,VALID,1.23984,
2017-01-17, 17:33:05,VALID,918.522,VALID,0,VALID,46.6401,VALID,716.847,VALID,24.6326,VALID,265,VALID,1.74258,
2017-01-17, 17:34:05,VALID,918.558,VALID,0,VALID,48.7289,VALID,714.699,VALID,24.5564,VALID,274,VALID,0.791016,
2017-01-17, 17:35:05,VALID,918.52,VALID,0,VALID,47.6006,VALID,713.087,VALID,24.4569,VALID,203,VALID,0.298828,
2017-01-17, 17:36:05,VALID,918.524,VALID,0,VALID,48.0123,VALID,719.963,VALID,24.5935,VALID,224,VALID,0.836328,
2017-01-17, 17:37:05,VALID,918.482,VALID,0,VALID,45.1154,VALID,723.509,VALID,24.6326,VALID,314,VALID,1.08672,
2017-01-17, 17:38:05,VALID,918.5,VALID,0,VALID,46.4495,VALID,727.484,VALID,24.5564,VALID,229,VALID,1.24844,
2017-01-17, 17:39:05,VALID,918.495,VALID,0,VALID,48.5612,VALID,171.584,VALID,24.4764,VALID,282,VALID,0.391406,
2017-01-17, 17:40:05,VALID,918.462,VALID,0,VALID,47.7378,VALID,720.823,VALID,24.7907,VALID,323,VALID,0,
2017-01-17, 17:41:05,VALID,918.465,VALID,0,VALID,49.3464,VALID,724.583,VALID,25.0036,VALID,323,VALID,0,
2017-01-17, 17:42:05,VALID,918.459,VALID,0,VALID,48.8127,VALID,717.492,VALID,25.2965,VALID,328,VALID,0,
2017-01-17, 17:43:05,VALID,918.463,VALID,0,VALID,50.2993,VALID,732.749,VALID,25.687,VALID,65,VALID,0,
2017-01-17, 17:44:05,VALID,918.479,VALID,0,VALID,47.4863,VALID,730.707,VALID,26.0406,VALID,243,VALID,0.0117188,
2017-01-17, 17:45:05,VALID,918.469,VALID,0,VALID,44.132,VALID,738.443,VALID,25.6675,VALID,246,VALID,0.167578,
2017-01-17, 17:46:05,VALID,918.427,VALID,0,VALID,44.0329,VALID,697.078,VALID,25.316,VALID,284,VALID,1.97656,
2017-01-17, 17:47:05,VALID,918.419,VALID,0,VALID,46.9297,VALID,657.862,VALID,25.1812,VALID,308,VALID,1.09258,
2017-01-17, 17:48:05,VALID,918.426,VALID,0,VALID,47.7455,VALID,592.431,VALID,24.9645,VALID,280,VALID,0.679297,
2017-01-17, 17:49:05,VALID,918.403,VALID,0,VALID,46.6934,VALID,641.424,VALID,24.7888,VALID,294,VALID,0.651172,
2017-01-17, 17:50:05,VALID,918.388,VALID,0,VALID,47.9437,VALID,693.855,VALID,24.7107,VALID,274,VALID,0.00585938,
2017-01-17, 17:51:05,VALID,918.383,VALID,0,VALID,47.0441,VALID,663.234,VALID,24.6735,VALID,259,VALID,1.2582,
2017-01-17, 17:52:05,VALID,918.364,VALID,0,VALID,47.0898,VALID,693.747,VALID,24.574,VALID,299,VALID,0.858203,
2017-01-17, 17:53:05,VALID,918.369,VALID,0,VALID,50.5051,VALID,663.557,VALID,24.5545,VALID,243,VALID,0.0796875,
2017-01-17, 17:54:05,VALID,918.359,VALID,0,VALID,47.9437,VALID,639.06,VALID,24.6131,VALID,259,VALID,1.26992,
2017-01-17, 17:55:05,VALID,918.335,VALID,0,VALID,49.2168,VALID,637.986,VALID,24.5368,VALID,265,VALID,0.258203,
2017-01-17, 17:56:05,VALID,918.361,VALID,0,VALID,48.8966,VALID,650.878,VALID,24.4959,VALID,257,VALID,0,
2017-01-17, 17:57:05,VALID,918.344,VALID,0,VALID,50.0858,VALID,629.175,VALID,24.6131,VALID,229,VALID,0,
2017-01-17, 17:58:05,VALID,918.326,VALID,0,VALID,48.5154,VALID,613.167,VALID,24.8083,VALID,284,VALID,0,
2017-01-17, 17:59:05,VALID,918.32,VALID,0,VALID,49.293,VALID,586.844,VALID,24.6912,VALID,252,VALID,0.423438,
2017-01-17, 18:00:05,VALID,918.342,VALID,0,VALID,50.7186,VALID,599.307,VALID,24.5935,VALID,279,VALID,0.0308594,
2017-01-17, 18:01:05,VALID,918.357,VALID,0,VALID,46.8764,VALID,591.678,VALID,24.574,VALID,276,VALID,0.340625,
2017-01-17, 18:02:05,VALID,918.352,VALID,0,VALID,49.0109,VALID,571.587,VALID,24.5954,VALID,257,VALID,0,
2017-01-17, 18:03:05,VALID,918.351,VALID,0,VALID,48.584,VALID,602.745,VALID,24.6131,VALID,253,VALID,0,
2017-01-17, 18:04:05,VALID,918.346,VALID,0,VALID,48.6908,VALID,587.273,VALID,24.8297,VALID,288,VALID,0,
2017-01-17, 18:05:05,VALID,918.35,VALID,0,VALID,46.884,VALID,594.257,VALID,24.9078,VALID,256,VALID,1.16055,
2017-01-17, 18:06:05,VALID,918.346,VALID,0,VALID,48.5917,VALID,595.546,VALID,24.8492,VALID,247,VALID,1.06523,
2017-01-17, 18:07:05,VALID,918.371,VALID,0,VALID,50.1849,VALID,569.76,VALID,24.7321,VALID,258,VALID,1.31094,
2017-01-17, 18:08:05,VALID,918.343,VALID,0,VALID,50.8711,VALID,576.637,VALID,24.6735,VALID,253,VALID,0.716797,
2017-01-17, 18:09:05,VALID,918.313,VALID,0,VALID,52.5253,VALID,589.207,VALID,24.6735,VALID,254,VALID,0.197266,
2017-01-17, 18:10:05,VALID,918.298,VALID,0,VALID,50.3755,VALID,567.719,VALID,24.654,VALID,256,VALID,0.678516,
2017-01-17, 18:11:05,VALID,918.32,VALID,0,VALID,51.1836,VALID,588.778,VALID,24.574,VALID,270,VALID,1.21484,
2017-01-17, 18:12:05,VALID,918.329,VALID,0,VALID,53.181,VALID,563.421,VALID,24.5368,VALID,260,VALID,0.180859,
2017-01-17, 18:13:05,VALID,918.295,VALID,0,VALID,49.3083,VALID,545.156,VALID,24.4587,VALID,255,VALID,0.271094,
2017-01-17, 18:14:05,VALID,918.3,VALID,0,VALID,49.6818,VALID,550.206,VALID,24.3221,VALID,250,VALID,0.919531,
2017-01-17, 18:15:05,VALID,918.269,VALID,0,VALID,48.4697,VALID,552.892,VALID,24.2812,VALID,214,VALID,0.233203,
2017-01-17, 18:16:05,VALID,918.228,VALID,0,VALID,48.3553,VALID,541.611,VALID,24.4587,VALID,217,VALID,0.0632813,
2017-01-17, 18:17:05,VALID,918.226,VALID,0,VALID,50.3374,VALID,534.09,VALID,24.574,VALID,260,VALID,0.718359,